If you wish to contribute or participate in the discussions about articles you are invited to join SKYbrary as a registered user

 Actions

Adelaide International Airport

From SKYbrary Wiki

YPAD
Airport
ICAO: YPAD – IATA: ADL
Summary
Name Adelaide International Airport
Region Asia and Pacific
Territory Christmas Island CX.gif
Location , South Australia
Serving Adelaide
Elevation 6.096 m
20 ft
20 ft6.096 m
Type medium airport
Coordinates 34° 56' 42.00" S, 138° 31' 50.00" E
Runways
Designator Length Width Surface ROPS
5/23 3100 m10,170.604 ft
45 m147.638 ft
ASP yes/yes
12/30 1652 m5,419.948 ft
45 m147.638 ft
ASP yes/yes


METAR
Observation YPAD 102200Z 04010KT CAVOK 10/04 Q1019 NOSIG
Station Adelaide Airport
Date/Time 10 June 2019 22:00:00
Wind direction 40°
Wind speed 10 kts
Lowest cloud amount clouds and visibility OK
Temperature 10°C
Dew point 4°C
Humidity 66%
QNH 1019 hPa
Weather condition n/a